"Pseudo-MPEC" for P112kNX

Created 2020 Jul 1 21:07:08 UT using Find_Orb

Click here for an explanation of pseudo-MPECs

 
 Astrometry: 
     P112kNX  C2020 06 28SvRIp^XIIsSFh3edCX%Astrometryk?HGsYe:wIm*yESo]e?`_L-F51
     P112kNX  C2020 06 28'_Lk(*KN#MOw`:7fk;3On2(dJnredacted;]0-c=hICZ+M_Y+2.(F51
     P112kNX  C2020 06 28r#s8H4x]8Z!(8M5!DXJh8VowiTcR\[Uclick0s#xSU[l6\bt5.v4F51
     P112kNX  C2020 06 30fFVXV%UZRpSa%Zt`0ChN=X\ml:ZJ'5J;-V2:=8A\=UV$[@!#nr[+F51
     P112kNX  C2020 06 30f'-Z]h*eW/?el3)+T?HcODo[=T7@?0R*Acm\YnpS$[Vh06fYrBvLF51
     P112kNX  C2020 06 30ZylyclUoPQXD-oWU?s/CT?eU,wMNsS.LEa5kq*B=@/fwd+JM($FnF51
     P112kNX  C2020 06 30vTs)(F]ks\RbN#GJ%dj4*AS5kZqI'?E)srfVr#GE`S.4W/8\s\KWF51
     P112kNX  C2020 07 01#$lH^cq?]pVBi2:l3:Rg@x1XZ^:+;qca?H$jga:j\3*Q%E2_G,]XF51
     P112kNX  C2020 07 01eqY#1Qfrphv;08UTV8g:CF2h2qi?.G^==)NherenI?lvZh50D'w9F51
     P112kNX  C2020 07 01$wKforldw5)+\gey*H'explanationSr'rXR@FAPEI'^MXctB:/%F51
     P112kNX  C2020 07 01FFleyQ4'^`bV$@bxg)(f,/$ZAg.d(qi(=6m=A[x%A`5y'QwHZ%4gF51

Station data:
(F51) Pan-STARRS 1, Haleakala  (N20.707235 W156.255910)  US/Hawaii.
   Observers N. Primak, A. Schultz, S. Watters, J. Thiel, T. Goggia. Measurer
   PS1 Science Consortium. 1.8-m Ritchey-Chrétien + CCD.

Orbital elements:  P112kNX
   Perihelion 2020 Oct 6.415041 +/- 0.573 TT =  9:57:39 (JD 2459128.915041)
Epoch 2020 Jul  1.0 TT = JDT 2459031.5   Earth MOID: 0.3594   Ma: 0.0744
M 338.39588334 +/- 0.9              (J2000 ecliptic)          AutoNEOCP
n   0.22177393 +/- 0.00907          Peri.  293.66097 +/- 1.6
a   2.70310170 +/- 0.0737           Node    63.40559 +/- 0.7
e   0.5099498 +/- 0.0103            Incl.    8.91020 +/- 0.17
P   4.44                   H 20.6   G  0.15   U  9.6  
q 1.32465541 +/- 0.0136    Q 4.08154799 +/- 0.133
From 11 observations 2020 June 28-July 1; mean residual 0".11
Residuals in arcseconds: 
200628 F51  .02-  .00     200630 F51  .03+  .07-    200701 F51  .05-  .02+    
200628 F51  .03+  .04+    200630 F51  .01-  .07+    200701 F51  .06+  .18-    
200628 F51  .01-  .04-    200630 F51  .02+  .15-    200701 F51  .17+  .29+    
200630 F51  .01-  .16+    200701 F51  .19-  .14-    

Ephemerides (geocentric):
Date (UTC) HH   RA              Dec         delta   r     elong  mag " sig PA
---- -- -- --  -------------   -----------  ------ ------ -----  --- ---- ---
2020 07 01 21  21 00 19.522   -33 32 47.51  .69765 1.6520 148.4 21.8 .217  95
2020 07 01 22  21 00 21.162   -33 33 24.38  .69729 1.6518 148.5 21.8 .234  92
2020 07 01 23  21 00 22.799   -33 34 01.27  .69693 1.6516 148.5 21.8 .251  89
2020 07 02 00  21 00 24.434   -33 34 38.20  .69658 1.6513 148.5 21.8 .270  86
2020 07 02 01  21 00 26.066   -33 35 15.14  .69622 1.6511 148.6 21.8 .289  84
2020 07 02 02  21 00 27.696   -33 35 52.11  .69586 1.6508 148.6 21.8 .310  82
2020 07 02 03  21 00 29.324   -33 36 29.11  .69551 1.6506 148.6 21.8 .330  81
2020 07 02 04  21 00 30.949   -33 37 06.14  .69515 1.6504 148.6 21.8 .352  79
2020 07 02 05  21 00 32.571   -33 37 43.18  .69479 1.6501 148.7 21.8 .374  78
2020 07 02 06  21 00 34.191   -33 38 20.26  .69444 1.6499 148.7 21.8 .397  76
2020 07 02 07  21 00 35.808   -33 38 57.36  .69408 1.6497 148.7 21.8 .421  75
2020 07 02 08  21 00 37.423   -33 39 34.48  .69372 1.6494 148.7 21.8 .445  74
2020 07 02 09  21 00 39.036   -33 40 11.63  .69337 1.6492 148.8 21.8 .470  73
2020 07 02 10  21 00 40.646   -33 40 48.81  .69301 1.6490 148.8 21.8 .495  72
2020 07 02 11  21 00 42.253   -33 41 26.01  .69266 1.6487 148.8 21.8 .521  71
2020 07 02 12  21 00 43.858   -33 42 03.24  .69231 1.6485 148.8 21.8 .548  71
2020 07 02 13  21 00 45.460   -33 42 40.49  .69195 1.6483 148.9 21.8 .575  70
2020 07 02 14  21 00 47.060   -33 43 17.77  .69160 1.6480 148.9 21.8 .602  69
2020 07 02 15  21 00 48.657   -33 43 55.07  .69124 1.6478 148.9 21.8 .630  69
2020 07 02 16  21 00 50.252   -33 44 32.40  .69089 1.6476 148.9 21.8 .659  68
2020 07 02 17  21 00 51.844   -33 45 09.75  .69054 1.6473 149.0 21.8 .688  68
2020 07 02 18  21 00 53.434   -33 45 47.13  .69018 1.6471 149.0 21.8 .718  67
2020 07 02 19  21 00 55.021   -33 46 24.53  .68983 1.6469 149.0 21.8 .748  67
2020 07 02 20  21 00 56.606   -33 47 01.96  .68948 1.6466 149.0 21.8 .779  66
2020 07 02 21  21 00 58.188   -33 47 39.41  .68913 1.6464 149.1 21.8 .810  66
2020 07 02 22  21 00 59.768   -33 48 16.89  .68878 1.6462 149.1 21.8 .842  66
2020 07 02 23  21 01 01.345   -33 48 54.39  .68842 1.6459 149.1 21.8 .874  65
2020 07 03 00  21 01 02.919   -33 49 31.92  .68807 1.6457 149.2 21.8 .907  65
2020 07 03 01  21 01 04.491   -33 50 09.47  .68772 1.6455 149.2 21.8 .940  65
2020 07 03 02  21 01 06.061   -33 50 47.05  .68737 1.6452 149.2 21.8 .974  64
2020 07 03 03  21 01 07.628   -33 51 24.65  .68702 1.6450 149.2 21.8 1.01  64
2020 07 03 04  21 01 09.192   -33 52 02.28  .68667 1.6447 149.3 21.8 1.04  64
2020 07 03 05  21 01 10.754   -33 52 39.93  .68632 1.6445 149.3 21.8 1.08  64
2020 07 03 06  21 01 12.313   -33 53 17.61  .68597 1.6443 149.3 21.8 1.11  63
2020 07 03 07  21 01 13.870   -33 53 55.31  .68562 1.6440 149.3 21.8 1.15  63
2020 07 03 08  21 01 15.424   -33 54 33.04  .68527 1.6438 149.4 21.8 1.19  63
2020 07 03 09  21 01 16.976   -33 55 10.79  .68493 1.6436 149.4 21.8 1.22  63
2020 07 03 10  21 01 18.525   -33 55 48.57  .68458 1.6433 149.4 21.8 1.26  63
2020 07 03 11  21 01 20.072   -33 56 26.37  .68423 1.6431 149.4 21.8 1.30  62
2020 07 03 12  21 01 21.616   -33 57 04.19  .68388 1.6429 149.5 21.8 1.34  62
2020 07 03 13  21 01 23.157   -33 57 42.04  .68353 1.6426 149.5 21.8 1.38  62
2020 07 03 14  21 01 24.696   -33 58 19.92  .68319 1.6424 149.5 21.8 1.42  62
2020 07 03 15  21 01 26.232   -33 58 57.82  .68284 1.6422 149.5 21.8 1.46  62
2020 07 03 16  21 01 27.766   -33 59 35.74  .68249 1.6419 149.6 21.8 1.50  62
2020 07 03 17  21 01 29.297   -34 00 13.69  .68215 1.6417 149.6 21.8 1.54  61
2020 07 03 18  21 01 30.826   -34 00 51.66  .68180 1.6415 149.6 21.8 1.58  61
2020 07 03 19  21 01 32.352   -34 01 29.66  .68145 1.6412 149.6 21.8 1.62  61
2020 07 03 20  21 01 33.876   -34 02 07.68  .68111 1.6410 149.7 21.8 1.67  61